STARLINK-38010, 69727

Orbit data source: Space-Track

STARLINK-38010, 69727 is a payload satellite owned by SpaceX/Seattle (US) in SSO that was launched on Sun, 28 Jun 2026 UTC via an FALCON 9 launch vehicle from the Air Force Western Test Range (AFWTR). Payload-class satellites include a variety of spacecraft equipped with specific instruments for various scientific and technological missions. These include communications satellites like Starlink; space stations such as the ISS; scientific satellites like the Hubble; Earth observation satellites from companies like Planet Labs, Umbra, and HawkEye 360; GPS; miniature CubeSats for education and research; and military/defense satellites.

Not visible in the next 10 days
Identifier
69727, 2026-147Z
Orbit
SSO
Country
Flag of USUS
Related business
Manufacturer
SpaceX/Seattle
Mission
Operational spacecraft
Bus & Motor
STARLINK V2MO, Unknown motor
Mass
575 kg wet, ~530 kg dry
Launch date (UTC)
2026-06-28 (2 weeks ago)
Launch vehicle
FALCON 9
Launch site
Air Force Western Test Range (AFWTR)
Object type
Payload
Rocket body
Debris
Shape & HBR
Unknown shape, 17.7 m
Radar Cross Section
Large (>1 m²)

Expand to show TLE details & history
Last TLE update: 5 hours ago

TLE from 5 hours ago
0 STARLINK-38010
1 69727U 26147Z   26193.16668980 -.00178209  00000-0 -12143-2 0  9998
2 69727  97.2840 229.3906 0001309 104.0609 126.9422 15.75277924  3342
Epoch: 2026-07-12T04:00Z
TLE epoch observation values (Epoch: 2026-07-12T04:00:01.998Z)
Latitude
-50.70941°
Longitude
50.37625°
Altitude
364.135 km
Speed
7.689 km/s
True Right ascension
02h 41m 48s
True Declination
-50° 31' 51"
Sunlit
Object was in daylight at epoch
Visualization orbit readout
Latitude
Unknown
Longitude
Unknown
Altitude
Unknown
Speed
Unknown
Apparent Right ascension
Unknown
Apparent Declination
Unknown
Sunlit
N/A
Visualization observer readout
Local Sidereal Time
21:04:27
Azimuth
Unknown
Elevation
Unknown
Doppler factor
Unknown
Orbital elements
Apogee altitude
341.607 km
Perigee altitude
339.848 km
Semi-major axis
6,718.865 km
Eccentricity
0.00013
Inclination
97.284°
RAAN
229.3906°
Arg. of periapsis
104.0609°
True anomaly
126.95419°
Mean anomaly
126.9422°
Eccentric anomaly
126.94819°
Mean motion
3.94094 °/min
Orbital period
91.35 mins
BSTAR
-0.0012143
Loading maneuver chart data...
Computing Atmospheric mass density...
Loading historical data...
Loading historical data...
Loading historical data...
Loading historical data...
Loading historical data...
Loading historical data...
Loading historical data...

Documentation

Showing up to 5 results
|